Yakima, WA
on Saturday, February 16, 2013

Saturday
Previous Day Next Day
Daily Summary
 ActualAverageRecord
Temperature
Mean Temperature °F 36°F  
Max Temperature 59°F 47°F 67°F (1977)
Min Temperature 26°F 26°F 3°F (1956)
Degree Days
Heating Degree Days 22 29  
Month to date heating degree days 383 481  
Since 1 July heating degree days 3652 4199  
Cooling Degree Days 0 0  
Month to date cooling degree days 0 0  
Year to date cooling degree days 0 0  
Moisture
Dew Point 27°F   
Average Humidity 63    
Maximum Humidity 92    
Minimum Humidity 33    
Precipitation
Precipitation 0.00 in 0.03 in 0.42 in (1959)
Month to date precipitation T 0.46  
Year to date precipitation 0.10 1.60  
Snow
Snow 0.00 in 0.10 in 3.40 in (1989)
Month to date snowfall 0.0 1.7  
Year to date snowfall 1.1 7.0  
Since 1 July snowfall 15.3 20.0  
Snow Depth 0.00 in   
Wind
Wind Speed 6 mph   
Max Wind Speed 29 mph   
Max Gust Speed 36 mph   
Visibility 9 miles   
Events     

Key: T is trace of precipitation, MM is missing value
Source: NWS Daily Summary
Time(PST)TemperatureDew PointHumidity Pressure Visibility Wind DirectionWind SpeedGust SpeedPrecipitationEvents Conditions
12:53 AM 30.0°F 26.1°F 85% 30.27 in 7.0 miles WNW 5.8 mph - N/A   Clear
1:53 AM 30.0°F 26.1°F 85% 30.25 in 7.0 miles WNW 4.6 mph - N/A   Clear
2:53 AM 28.9°F 26.1°F 89% 30.23 in 6.0 miles WNW 3.5 mph - N/A   Clear
3:53 AM 27.0°F 24.1°F 89% 30.22 in 6.0 miles West 4.6 mph - N/A   Clear
4:53 AM 27.0°F 23.0°F 85% 30.19 in 6.0 miles WNW 4.6 mph - N/A   Clear
5:53 AM 27.0°F 23.0°F 85% 30.19 in 6.0 miles WNW 4.6 mph - N/A   Clear
6:53 AM 26.1°F 21.9°F 84% 30.18 in 8.0 miles Calm Calm - N/A   Clear
7:53 AM 30.0°F 25.0°F 82% 30.18 in 7.0 miles Calm Calm - N/A   Clear
8:53 AM 34.0°F 30.0°F 85% 30.17 in 7.0 miles Calm Calm - N/A   Mostly Cloudy
9:53 AM 41.0°F 33.1°F 73% 30.14 in 10.0 miles Calm Calm - N/A   Mostly Cloudy
10:53 AM 45.0°F 34.0°F 65% 30.13 in 10.0 miles Calm Calm - N/A   Clear
11:53 AM 46.9°F 34.0°F 61% 30.11 in 10.0 miles Calm Calm - N/A   Clear
12:53 PM 52.0°F 36.0°F 54% 30.07 in 10.0 miles Calm Calm - N/A   Scattered Clouds
1:53 PM 55.9°F 37.9°F 51% 30.04 in 10.0 miles South 3.5 mph - N/A   Scattered Clouds
2:53 PM 57.9°F 28.9°F 33% 30.02 in 10.0 miles WNW 15.0 mph 20.7 mph N/A   Scattered Clouds
3:53 PM 54.0°F 28.0°F 37% 30.04 in 10.0 miles West 25.3 mph 33.4 mph N/A   Scattered Clouds
4:53 PM 51.1°F 26.1°F 38% 30.06 in 10.0 miles West 17.3 mph 25.3 mph N/A   Scattered Clouds
5:53 PM 48.0°F 26.1°F 42% 30.06 in 10.0 miles West 13.8 mph - N/A   Partly Cloudy
6:53 PM 46.9°F 25.0°F 42% 30.06 in 10.0 miles WNW 10.4 mph 20.7 mph N/A   Clear
7:53 PM 45.0°F 25.0°F 46% 30.05 in 10.0 miles WNW 9.2 mph - N/A   Clear
8:53 PM 41.0°F 25.0°F 53% 30.08 in 10.0 miles West 5.8 mph - N/A   Clear
9:53 PM 39.9°F 24.1°F 53% 30.08 in 10.0 miles WNW 6.9 mph - N/A   Clear
10:53 PM 44.1°F 25.0°F 47% 30.06 in 10.0 miles WNW 12.7 mph - N/A   Clear
11:53 PM 42.1°F 25.0°F 51% 30.08 in 10.0 miles ESE 4.6 mph - N/A   Clear
Moon Phase
Feb. 16 Feb. 17 Feb. 25 Mar. 04 Mar. 11
Sunrise:07:03 AM (PST) Moon Rise:09:53 AM (PST)2/16
Sunset:05:29 PM (PST) Moon Set:No Moon Set/

Copyright © 2014 The Weather Underground, Inc.